Flag for Maldives Weather past 2 weeks in Male, Maldives

Now
84 °F

Partly sunny.


Feels Like: 94 °F
Forecast: 80 / 83 °F
Wind: 12 mph from Northeast

Location: Male Airport

Current Time: Dec 18, 2014 at 2:48:58 PM

Latest Report: Dec 18, 2014 at 2:00 PM


Visibility: N/A

Pressure: 29.80 "Hg

Humidity: 79%

Dew point: 77 °F

Location of MaleLocation

Historic Weather in Male — Graph

°F

Male temperature yesterday

Maximum temperature yesterday: 88 °F (at 11:00 AM)
Minimum temperature yesterday: 77 °F (at 10:00 PM)
Average temperature yesterday: 84 °F

Past Weeks' High & Low Weather Summary

 TemperatureHumidityPressure
High88 °F (Dec 4, 12:00 PM)100% (Dec 17, 10:00 PM)29.95 "Hg (Dec 17, 10:00 PM)
Low77 °F (Dec 11, 10:00 AM)62% (Dec 4, 12:00 PM)29.77 "Hg (Dec 7, 3:00 PM)
Average83 °F79%29.87 "Hg
* Reported Dec 3 1:00 PM — Dec 18 1:00 PM, Male, Weather by CustomWeather, © 2014

Note: Actual official high and low records may vary slightly from our data, if they occured in-between our weather recording intervals... More about our weather records

Advertising

Male weather history for previous 24 hours

 ConditionsComfort  
Time TempWeatherWind HumidityBarometerVisibility
1:00 PM
Dec 18
81 °FSprinkles. Broken clouds.21 mph84%29.83 "HgN/A
12:00 PM84 °FBroken clouds.16 mph79%29.86 "HgN/A
11:00 AM86 °FPartly sunny.16 mph75%29.86 "HgN/A
10:00 AM84 °FBroken clouds.16 mph79%29.86 "HgN/A
9:00 AM84 °FBroken clouds.18 mph79%29.86 "HgN/A
8:00 AM82 °FBroken clouds.13 mph84%29.86 "HgN/A
7:00 AM82 °FBroken clouds.12 mph84%29.83 "HgN/A
6:00 AM81 °FPartly cloudy.10 mph84%29.83 "Hg6 mi
5:00 AM81 °FPartly cloudy.3 mph84%29.83 "HgN/A
4:00 AM81 °FPartly cloudy.6 mph84%29.80 "HgN/A
3:00 AM81 °FPassing clouds.15 mph84%29.77 "HgN/A
2:00 AM81 °FPartly cloudy.8 mph84%29.80 "HgN/A
1:00 AM81 °FPassing clouds.3 mph89%29.83 "HgN/A
12:00 AM79 °FPassing clouds.3 mph89%29.86 "HgN/A
10:00 PM
Dec 17
77 °FThunderstorms. Mostly cloudy.8 mph100%29.89 "Hg5 mi
6:00 PM84 °FPassing clouds.9 mph79%29.80 "HgN/A
5:00 PM84 °FPartly sunny.9 mph74%29.80 "HgN/A
4:00 PM86 °FPartly sunny.1 mph70%29.77 "HgN/A
3:00 PM86 °FPartly sunny.6 mph70%29.77 "HgN/A
2:00 PM88 °FPartly sunny.8 mph70%29.80 "HgN/A
Weather by CustomWeather, © 2014

See weather overviewHow to use our weather pages